ARIANE 44L+3 DEB (SPELDA, 23867

Orbit data source: Space-Track

ARIANE 44L+3 DEB (SPELDA, 23867 is space debris in HEO originally from a launch on Thu, 16 May 1996 UTC launched from the French Guiana (FRGUI). Debris objects in space refer to the collection of defunct objects orbiting the Earth. Examples of debris include non-operational satellites, rocket bodies, and fragments generated from explosions, collisions, or faulty payload assembly.

Loading next visibility...
Identifier
23867, 1996-030D
Orbit
HEO
Country
Flag of FRFR
Related business
Manufacturer
MMS/Stevenage
Mission
Spacecraft
Bus & Motor
SPELDA, Unknown motor
Mass
370 kg wet, 370 kg dry
Launch date (UTC)
1996-05-16 (30 years ago)
Launch vehicle
Unknown
Launch site
French Guiana (FRGUI)
Object type
Payload
Rocket body
Debris
Shape & HBR
Cyl + Trunc Cone, 2.0 m
Radar Cross Section
15.080 m², Large (>1 m²)

Expand to show TLE details & history
Last TLE update: 9 hours ago

TLE from 9 hours ago
0 ARIANE 44L+3 DEB (SPELDA
1 23867U 96030D   26093.77721806  .00003886  00000-0  31531-2 0  9992
2 23867   4.0381 322.7849 6553331 343.9236   2.6338  3.18295942296502
Epoch: 2026-04-03T18:39Z
TLE epoch observation values (Epoch: 2026-04-03T18:39:11.640Z)
Latitude
0.00001°
Longitude
-149.16734°
Altitude
465.755 km
Speed
9.801 km/s
True Right ascension
21h 30m 57s
True Declination
0° 00' 00"
Sunlit
Object was in daylight at epoch
Visualization orbit readout
Latitude
Unknown
Longitude
Unknown
Altitude
Unknown
Speed
Unknown
Apparent Right ascension
Unknown
Apparent Declination
Unknown
Sunlit
N/A
Visualization observer readout
Local Sidereal Time
09:52:12
Azimuth
Unknown
Elevation
Unknown
Doppler factor
Unknown
Orbital elements
Apogee altitude
25,945.164 km
Perigee altitude
352.093 km
Semi-major axis
19,526.766 km
Eccentricity
0.65533
Inclination
4.0381°
RAAN
322.7849°
Arg. of periapsis
343.9236°
True anomaly
16.56199°
Mean anomaly
2.6338°
Eccentric anomaly
7.59926°
Mean motion
0.79542 °/min
Orbital period
452.59 mins
BSTAR
0.0031531
Loading maneuver chart data...
Computing Atmospheric mass density...
Loading historical data...
Loading historical data...
Loading historical data...
Loading historical data...
Loading historical data...
Loading historical data...
Loading historical data...
Other satellites on launch #30 in the year 1996 (1996-05-16 UTC)

Documentation

Showing up to 5 results
|